Weather History for Tel Aviv, Israel

Change the Weather History Date:

Monday, June 17, 2013

  Actual Average Record
Temperature  
Mean Temperature 77 °F -  
Max Temperature 84 °F 85 °F 95 °F (2003)
Min Temperature 70 °F 70 °F 66 °F (2002)
Cooling Degree Days 12    
Growing Degree Days 27 (Base 50)    
Moisture  
Dew Point 64 °F    
Average Humidity 63    
Maximum Humidity 73    
Minimum Humidity 44    
Precipitation  
Precipitation 0.00 in - - ()
Sea Level Pressure  
Sea Level Pressure 29.78 in    
Wind  
Wind Speed 5 mph ()    
Max Wind Speed 13 mph    
Max Gust Speed -    
Visibility 6.2 miles    
Events      
Averages and records for this station are not official NWS values.
T = Trace of Precipitation, MM = Missing Value Source: Averaged Metar Reports

Daily Weather History Graph

Daily Weather History Graph

Search for Another Location

Airport:

Trip Planner

Search our weather history database for the weather conditions in past years. The results will help you decide how hot, cold, wet, or windy it might be!

Date:

Astronomy

Jun. 17, 2013 Rise Set
Actual Time 5:34 AM IDT 7:48 PM IDT
Civil Twilight 5:05 AM IDT 8:16 PM IDT
Nautical Twilight 4:31 AM IDT 8:51 PM IDT
Astronomical Twilight 3:53 AM IDT 9:28 PM IDT
Moon 1:23 PM IDT (6/17) 12:38 AM IDT (6/17)
Length of Visible Light 15h 11m
Length of Day
14h 14m
First Quarter, 57% of the Moon is Illuminated
Jun 17
First Quarter
Jun 23
Full
Jun 30
Last Quarter
Jul 8
New
Jul 16
First Quarter

Hourly Weather History & Observations

Time (IDT) Temp. Heat Index Dew Point Humidity Pressure Visibility Wind Dir Wind Speed Gust Speed Precip Events Conditions
12:20 AM 73.4 °F - 62.6 °F 69% 29.83 in 6.2 mi West 6.9 mph - N/A   Partly Cloudy
12:50 AM 73.4 °F - 62.6 °F 69% 29.83 in 6.2 mi Variable 3.5 mph - N/A   Partly Cloudy
1:20 AM 73.4 °F - 62.6 °F 69% 29.80 in 6.2 mi Variable 2.3 mph - N/A   Scattered Clouds
1:50 AM 73.4 °F - 62.6 °F 69% 29.80 in 6.2 mi Variable 2.3 mph - N/A   Scattered Clouds
2:20 AM 73.4 °F - 62.6 °F 69% 29.80 in 6.2 mi Variable 2.3 mph - N/A   Scattered Clouds
2:50 AM 71.6 °F - 62.6 °F 73% 29.80 in 6.2 mi South 5.8 mph - N/A   Partly Cloudy
3:00 AM 72 °F - 63 °F 66% 29.81 in 6 mi South 5.8 mph - -   Scattered Clouds
3:20 AM 71.6 °F - 62.6 °F 73% 29.80 in 6.2 mi South 6.9 mph - N/A   Scattered Clouds
3:50 AM 71.6 °F - 62.6 °F 73% 29.80 in 6.2 mi South 4.6 mph - N/A   Mostly Cloudy
4:20 AM 71.6 °F - 62.6 °F 73% 29.80 in 6.2 mi Variable 2.3 mph - N/A   Scattered Clouds
4:50 AM 71.6 °F - 62.6 °F 73% 29.80 in 6.2 mi Variable 3.5 mph - N/A   Scattered Clouds
5:20 AM 71.6 °F - 62.6 °F 73% 29.80 in 6.2 mi Variable 3.5 mph - N/A   Scattered Clouds
5:50 AM 71.6 °F - 62.6 °F 73% 29.80 in 6.2 mi Variable 3.5 mph - N/A   Partly Cloudy
6:20 AM 71.6 °F - 62.6 °F 73% 29.80 in 6.2 mi Variable 2.3 mph - N/A   Scattered Clouds
6:50 AM 71.6 °F - 62.6 °F 73% 29.80 in 6.2 mi Variable 3.5 mph - N/A   Partly Cloudy
7:20 AM 73.4 °F - 62.6 °F 69% 29.80 in 6.2 mi South 4.6 mph - N/A   Partly Cloudy
7:50 AM 75.2 °F - 64.4 °F 69% 29.80 in 6.2 mi South 4.6 mph - N/A   Partly Cloudy
8:20 AM 77.0 °F - 62.6 °F 61% 29.80 in 6.2 mi Variable 3.5 mph - N/A   Scattered Clouds
8:50 AM 78.8 °F - 62.6 °F 57% 29.80 in 6.2 mi Variable 2.3 mph - N/A   Scattered Clouds
9:00 AM 79 °F - 62 °F 47% 29.81 in 6 mi 2.3 mph - -   Partly Cloudy
9:20 AM 78.8 °F - 60.8 °F 54% 29.80 in 6.2 mi Variable 3.5 mph - N/A   Scattered Clouds
9:50 AM 78.8 °F - 60.8 °F 54% 29.80 in 6.2 mi West 6.9 mph - N/A   Scattered Clouds
10:20 AM 80.6 °F 81.5 °F 60.8 °F 51% 29.80 in 6.2 mi WNW 5.8 mph - N/A   Scattered Clouds
10:50 AM 80.6 °F 81.8 °F 62.6 °F 54% 29.80 in 6.2 mi West 6.9 mph - N/A   Scattered Clouds
11:20 AM 80.6 °F 81.5 °F 60.8 °F 51% 29.77 in 6.2 mi West 8.1 mph - N/A   Partly Cloudy
11:50 AM 82.4 °F 83.4 °F 62.6 °F 51% 29.77 in 6.2 mi WNW 10.4 mph - N/A   Partly Cloudy
12:20 PM 80.6 °F 81.8 °F 62.6 °F 54% 29.77 in 6.2 mi West 10.4 mph - N/A   Partly Cloudy
12:50 PM 80.6 °F 81.5 °F 60.8 °F 51% 29.77 in 6.2 mi West 12.7 mph - N/A   Partly Cloudy
1:20 PM 82.4 °F 83.4 °F 62.6 °F 51% 29.77 in 6.2 mi WNW 9.2 mph - N/A   Partly Cloudy
1:50 PM 82.4 °F 83.4 °F 62.6 °F 51% 29.77 in 6.2 mi WNW 11.5 mph - N/A   Partly Cloudy
2:20 PM 82.4 °F 83.4 °F 62.6 °F 51% 29.77 in 6.2 mi WNW 11.5 mph - N/A   Partly Cloudy
2:50 PM 82.4 °F 83.9 °F 64.4 °F 54% 29.77 in 6.2 mi WNW 10.4 mph - N/A   Scattered Clouds
3:00 PM 82 °F - 64 °F 44% 29.78 in 6 mi WNW 10.4 mph - -   Partly Cloudy
3:20 PM 80.6 °F 82.3 °F 64.4 °F 58% 29.77 in 6.2 mi WNW 11.5 mph - N/A   Scattered Clouds
3:50 PM 80.6 °F 81.8 °F 62.6 °F 54% 29.74 in 6.2 mi WNW 10.4 mph - N/A   Partly Cloudy
4:20 PM 80.6 °F 82.3 °F 64.4 °F 58% 29.74 in 6.2 mi West 10.4 mph - N/A   Partly Cloudy
4:50 PM 80.6 °F 82.3 °F 64.4 °F 58% 29.74 in 6.2 mi WNW 10.4 mph - N/A   Partly Cloudy
5:20 PM 80.6 °F 82.7 °F 66.2 °F 61% 29.74 in 6.2 mi WNW 11.5 mph - N/A   Partly Cloudy
5:50 PM 78.8 °F - 66.2 °F 65% 29.74 in 6.2 mi WNW 12.7 mph - N/A   Partly Cloudy
6:20 PM 78.8 °F - 66.2 °F 65% 29.74 in 6.2 mi NW 10.4 mph - N/A   Scattered Clouds
6:50 PM 78.8 °F - 66.2 °F 65% 29.74 in 6.2 mi WNW 9.2 mph - N/A   Scattered Clouds
7:20 PM 77.0 °F - 66.2 °F 69% 29.74 in 6.2 mi WNW 9.2 mph - N/A   Partly Cloudy
7:50 PM 77.0 °F - 66.2 °F 69% 29.77 in 6.2 mi WNW 6.9 mph - N/A   Partly Cloudy
8:20 PM 77.0 °F - 66.2 °F 69% 29.77 in 6.2 mi WNW 5.8 mph - N/A   Partly Cloudy
8:50 PM 77.0 °F - 66.2 °F 69% 29.77 in - West 4.6 mph - N/A   Clear
9:00 PM 76 °F - 66 °F 63% 29.77 in 6 mi West 4.6 mph - -  
9:20 PM 77.0 °F - 66.2 °F 69% 29.77 in - Variable 3.5 mph - N/A   Clear
9:50 PM 75.2 °F - 64.4 °F 69% 29.77 in - Variable 3.5 mph - N/A   Clear
10:20 PM 75.2 °F - 64.4 °F 69% 29.77 in - Variable 2.3 mph - N/A   Clear
10:50 PM 75.2 °F - 66.2 °F 73% 29.77 in - Variable 3.5 mph - N/A   Clear
11:20 PM 75.2 °F - 66.2 °F 73% 29.74 in - Variable 2.3 mph - N/A   Clear
11:50 PM 75.2 °F - 66.2 °F 73% 29.74 in - Variable 3.5 mph - N/A   Clear